カタログに戻る

WEILI KONGJIAN 05-04

運用中ナビゲーションLEO
NORAD 69585·PAYLOAD·🇨🇳 China
この衛星名は、まだ公式ソースで確認されていません。

打ち上げ Jun 17, 2026 から Jiuquan Satellite Launch Center

Loading…

次のパス (今後24時間)

TLE

最新Source: Space-Track

元期: Sep 14, 2026, 10:42 UTC

1 69585U 26138D   26257.44628376 -.00000047  00000-0  53875-4 0  9999
2 69585  55.1409 311.3854 0012803  97.6961 262.5468 14.15931773 12665

AllMySatでWEILI KONGJIAN 05-04をリアルタイム追跡

Download on the App Store